SCP
0 0 0 0 0 0 0 0 0 0 0 0 0 0 0 0 0 0 1 1 1 1 1 1 1 1 1 1 1 1 1 1 1 1 1 1 1 1 1 1 1 1 1 1
0 0 0 0 0 0 0 0 0 0 0 0 0 0 0 0 0 1 1 1 1 1 1 1 1 1 1 1 1 1 1 1 1 1 1 1 1 1 1 1 1 1 1 1
0 0 0 0 0 0 0 0 0 0 0 0 0 0 0 0 0 0 1 1 1 1 1 1 1 1 1 1 1 1 1 1 1 1 1 1 1 1 1 1 1 1 1 1
0 0 0 0 0 0 0 0 0 0 0 0 0 0 0 0 0 0 0 0 1 1 1 1 1 1 1 1 1 1 1 1 1 1 1 1 1 1 1 1 1 1 1 1
0 0 0 0 0 0 0 0 0 0 0 0 0 0 0 0 0 0 0 0 1 1 1 1 1 1 1 1 1 1 1 1 1 1 1 1 1 1 1 1 1 1 1 1
0 0 0 0 0 0 0 0 0 0 0 0 0 0 0 0 0 0 0 0 1 1 1 1 1 1 1 1 1 1 1 1 1 1 1 1 1 1 1 1 1 1 1 1
0 0 0 0 0 0 0 0 0 0 0 0 0 0 0 0 0 0 1 1 1 1 1 1 1 1 1 1 1 1 1 1 1 1 1 1 1 1 1 1 1 1 1 1
0 0 0 0 0 0 0 0 0 0 0 0 0 0 0 0 1 1 1 1 1 1 1 1 1 1 1 1 1 1 1 1 1 1 1 1 1 1 1 1 1 1 1 1
0 0 0 0 0 0 0 0 0 0 0 0 0 0 0 0 1 1 1 1 1 1 1 1 1 1 1 1 1 1 1 1 1 1 1 1 1 1 1 1 1 1 1 1
0 0 0 0 0 0 0 0 0 0 0 0 0 0 0 0 1 1 1 1 1 1 1 1 1 1 1 1 1 1 1 1 1 1 1 1 1 1 1 1 1 1 1 1
0 0 0 0 0 0 0 0 0 0 0 0 0 0 0 0 1 1 1 1 1 1 1 1 1 1 1 1 1 1 1 1 1 1 1 1 1 1 1 1 1 1 1 1
0 0 0 0 0 0 0 0 0 0 0 0 0 0 0 0 0 0 0 0 0 1 1 1 1 1 1 1 1 1 1 1 1 1 1 1 1 1 1 0 0 0 0 0
0 0 0 0 0 0 0 0 0 0 0 0 0 0 0 0 0 0 0 0 0 0 0 0 1 1 1 1 1 1 1 1 1 1 1 1 1 1 0 0 0 0 0 0
0 0 0 0 0 0 0 0 0 0 0 0 0 0 0 0 0 0 0 0 0 0 0 0 0 0 0 0 1 1 0 0 0 0 0 0 0 0 0 0 0 0 0 0
0 0 0 0 0 0 0 0 0 0 0 0 0 0 0 0 0 0 0 0 0 0 0 0 0 0 0 0 0 0 0 0 0 0 0 0 0 0 0 0 0 0 0 0
0 0 0 0 0 0 0 0 0 0 0 0 0 0 0 0 0 0 0 0 0 0 0 0 0 0 0 0 0 0 0 0 0 0 0 0 0 0 0 0 0 0 0 0
0 0 0 0 0 0 0 0 0 0 0 0 0 0 0 0 0 0 0 0 0 0 0 0 0 0 0 -0 -0 -0 0 0 0 0 0 0 0 0 0 0 0 0 0 0
0 0 0 0 0 0 0 0 0 0 0 0 0 0 0 0 0 0 0 0 0 0 0 0 0 0 0 0 0 0 0 0 0 0 0 0 0 0 0 0 0 0 0 0
0 0 0 0 0 0 0 0 0 0 0 0 0 0 0 0 0 0 0 0 0 0 0 0 0 0 0 0 0 0 0 0 0 0 0 0 0 0 0 0 0 0 0 0
0 0 0 0 0 0 0 0 0 0 0 0 0 0 0 0 0 0 0 0 0 0 0 0 0 0 0 0 0 0 0 0 0 0 0 0 0 0 0 0 0 0 0 0
0 0 0 0 0 0 0 0 0 0 0 0 0 0 0 0 0 0 0 0 0 0 0 0 0 0 0 0 0 0 0 0 0 0 0 0 0 0 0 0 0 0 0 0
0 0 0 0 0 0 0 0 0 0 0 0 0 0 0 0 0 0 0 0 0 0 0 0 0 0 0 0 0 0 0 0 0 0 0 0 0 0 0 0 0 0 0 0
0 0 0 0 0 0 0 0 0 0 0 0 0 0 0 0 0 0 0 0 0 0 0 0 0 0 0 0 0 0 0 0 0 0 0 0 0 0 0 0 0 0 0 0
0 0 0 0 0 0 0 0 0 0 0 0 0 0 0 0 0 0 0 0 0 0 0 0 0 0 0 0 0 0 0 0 0 0 0 0 0 0 0 0 0 0 0 0
0 0 0 0 0 0 0 0 0 0 0 0 0 0 0 0 0 0 0 0 0 0 0 0 0 0 0 0 0 0 0 0 0 0 0 0 0 0 0 0 0 0 0 0
0 0 0 0 0 0 0 0 0 0 0 0 0 0 0 0 0 0 0 0 0 0 0 0 0 0 0 0 0 0 0 0 0 0 0 0 0 0 0 0 0 0 0 0
0 0 0 0 0 0 0 0 0 0 0 0 0 0 0 0 0 0 0 0 0 0 0 0 0 0 0 0 0 0 0 0 0 0 0 0 0 0 0 0 0 0 0 0
Wind_Speed
7 6 6 8 8 9 9 9 9 7 6 4 3 3 2 1 0 0 1 1 1 1 1 2 2 2 3 3 3 3 4 4 4 4 4 5 6 5 5 5 5 5 5 5
9 9 8 9 9 10 10 9 9 8 7 2 2 2 2 1 1 1 0 0 0 1 1 2 2 2 3 3 3 3 3 4 4 4 4 5 5 5 5 5 5 5 5 5
9 8 9 11 9 10 8 7 8 8 4 2 2 2 2 2 2 1 1 1 0 1 1 1 1 2 2 3 3 3 3 4 3 4 4 4 4 5 5 5 5 5 6 6
8 8 13 3 1 4 6 6 5 4 3 2 3 2 2 3 2 2 2 1 1 1 1 1 1 1 2 2 3 3 3 3 3 3 4 4 4 5 4 4 5 5 5 6
8 11 9 4 3 4 6 6 4 5 4 2 2 3 1 2 2 2 2 2 1 1 1 1 0 1 1 2 2 3 3 3 3 3 3 4 4 4 4 4 5 5 5 5
8 10 9 2 2 2 6 7 2 4 4 4 3 5 2 4 3 3 2 1 1 1 1 0 0 1 2 2 2 3 3 3 3 3 3 4 4 4 4 4 5 5 5 5
10 10 6 2 2 4 7 1 2 1 2 2 2 4 4 3 3 3 2 2 1 1 1 0 1 1 2 2 3 3 2 2 3 3 3 4 4 4 4 4 4 5 5 5
8 10 4 4 3 3 2 4 2 1 1 1 1 2 2 2 2 3 3 3 2 2 2 1 1 1 2 2 2 2 2 2 2 3 3 2 3 4 4 4 5 5 5 5
4 2 4 1 0 2 2 1 1 2 2 1 1 1 2 2 2 2 2 2 2 2 2 1 1 1 2 2 2 2 2 2 2 3 3 3 3 4 4 5 5 4 4 4
3 2 1 1 0 0 1 1 2 2 2 2 2 2 2 2 2 2 3 2 2 2 2 2 2 2 2 2 2 2 2 2 3 3 3 3 3 4 4 4 4 3 4 4
4 2 2 2 1 0 1 1 2 2 2 2 2 2 1 1 2 2 2 2 2 2 2 2 2 2 2 2 2 3 3 3 3 3 3 3 3 3 4 2 2 4 4 4
3 1 2 1 1 2 2 2 2 2 2 1 1 1 1 1 2 2 2 2 2 2 2 2 2 2 2 2 3 3 3 3 4 4 3 3 3 2 1 2 1 3 5 6
3 3 3 2 2 2 2 2 2 1 1 1 1 1 1 1 1 2 2 2 2 2 2 2 2 2 2 2 3 3 4 4 4 4 3 4 3 3 3 2 4 5 6 6
2 3 3 2 1 2 2 1 0 0 1 1 0 0 1 1 1 2 3 3 2 2 3 3 2 2 3 2 3 3 4 4 5 4 4 4 4 4 4 4 3 3 5 7
4 4 3 2 2 1 1 1 1 1 1 1 1 1 2 2 2 2 2 2 2 2 3 3 3 3 3 3 3 4 4 3 3 4 4 4 4 5 4 5 4 4 3 3
4 4 4 3 3 2 2 1 1 1 1 2 2 3 3 2 2 2 2 2 3 3 3 3 3 3 3 3 4 4 3 3 4 5 5 4 4 5 5 5 5 4 4 3
6 5 4 4 3 3 2 2 2 2 2 2 3 3 3 3 2 2 3 2 3 3 3 3 3 2 3 3 4 4 4 3 4 5 5 5 5 5 5 5 5 4 4 1
6 5 5 5 4 3 3 2 2 2 2 3 3 3 3 3 3 3 3 3 3 3 3 3 2 3 3 4 4 4 4 4 4 4 4 4 5 5 5 5 5 5 4 1
6 5 5 5 4 4 3 3 3 2 2 3 4 4 4 3 3 3 3 3 3 3 3 2 3 4 3 3 4 4 4 4 4 4 4 4 5 5 5 5 5 4 3 2
4 4 4 4 4 4 4 3 3 3 3 3 4 3 3 3 3 3 3 3 3 3 2 2 3 3 3 3 5 4 4 4 4 4 4 4 4 4 5 5 5 4 3 3
3 3 3 3 3 4 4 4 3 3 3 3 4 4 4 3 3 3 4 3 1 2 2 2 3 3 3 3 5 4 4 4 4 4 4 4 4 4 4 4 4 3 3 3
3 3 3 3 4 4 4 3 3 3 3 4 4 4 3 3 3 3 3 3 2 1 3 3 2 2 3 5 4 4 4 4 4 4 4 4 4 4 4 4 3 3 3 3
2 3 3 3 4 4 4 4 4 3 4 4 4 4 4 3 3 4 3 2 2 2 4 3 1 1 4 5 4 4 4 4 4 4 4 4 3 3 3 4 3 3 3 3
2 2 3 3 3 4 4 3 3 3 4 4 4 4 4 3 3 3 2 1 2 3 4 1 1 3 6 5 4 4 3 3 3 3 3 3 3 3 3 3 3 3 3 4
2 3 3 4 4 3 3 3 3 3 3 3 3 3 3 3 3 3 3 2 2 4 3 1 4 5 6 4 3 3 2 2 3 3 3 3 3 3 2 2 3 3 3 3
2 2 2 3 3 2 3 3 2 2 2 2 1 1 2 2 2 2 2 2 2 3 3 1 2 3 4 3 3 3 3 2 2 3 3 3 3 3 3 3 3 3 3 3
2 1 1 2 2 2 2 2 2 2 2 1 1 1 1 1 1 2 2 2 1 2 2 1 2 2 3 3 3 3 3 2 2 3 3 3 3 3 3 3 3 3 3 3
Wind_Direction
257 258 246 237 234 229 239 258 266 265 270 299 326 317 320 320 271 165 122 115 137 165 169 176 175 190 203 210 206 202 204 216 218 220 220 223 218 218 223 228 230 225 230 235
237 239 241 243 240 238 239 249 255 262 268 316 331 329 309 292 287 277 326 88 173 198 186 182 190 202 203 206 202 203 214 223 221 223 220 224 223 219 221 226 233 233 232 234
241 233 239 239 235 235 233 241 254 261 279 310 300 303 302 295 287 306 311 316 290 241 228 226 222 217 216 199 193 205 223 229 227 228 228 229 229 222 224 226 227 233 238 237
245 226 240 235 172 246 243 238 259 267 274 292 302 309 328 330 314 302 316 309 264 252 246 245 232 213 230 197 193 204 218 228 226 229 233 234 233 231 233 233 232 234 238 240
244 238 238 204 191 234 241 237 245 259 263 262 273 243 202 41 357 317 311 319 303 278 254 243 237 201 213 213 206 214 218 224 227 231 236 235 232 232 235 238 237 236 236 238
239 251 249 200 138 219 245 235 203 248 258 262 255 263 32 45 11 349 329 327 316 301 267 181 223 219 218 221 222 234 235 229 223 219 230 238 237 237 231 232 238 240 238 240
239 245 247 79 120 195 231 265 55 308 288 278 286 336 21 20 14 7 2 356 337 314 322 356 256 232 240 242 244 248 247 240 231 224 231 236 237 236 238 236 240 245 244 239
238 245 233 94 174 231 358 37 30 352 333 336 340 352 350 6 9 8 12 10 358 359 0 341 295 257 264 277 279 255 240 240 241 238 241 229 233 235 237 238 231 234 238 242
261 304 50 83 4 27 1 333 343 332 335 322 300 317 330 342 345 353 2 360 345 359 1 334 301 276 279 289 277 264 246 240 241 245 253 251 242 236 235 234 243 241 240 246
239 216 166 193 169 324 318 311 320 320 310 297 293 306 316 332 340 339 343 344 342 344 333 327 323 302 293 288 272 261 261 258 249 244 250 255 262 253 254 257 262 261 257 255
232 232 231 178 156 42 351 313 306 315 310 294 292 303 329 334 346 344 343 342 334 329 323 322 321 311 300 290 281 273 265 262 261 254 256 254 252 272 269 277 289 279 277 274
257 232 264 283 328 326 308 306 308 308 322 328 331 344 334 344 343 334 326 326 324 330 335 330 326 322 315 294 274 268 267 267 270 266 257 257 256 256 237 257 230 251 263 274
290 308 302 299 307 305 296 295 301 302 291 293 0 337 315 338 324 313 308 301 307 314 319 315 317 318 307 286 275 269 275 279 279 278 273 268 269 272 268 228 210 228 238 242
255 258 255 254 284 300 300 296 297 293 270 273 287 302 311 292 287 293 297 298 293 293 292 293 302 310 311 302 288 279 275 267 266 268 269 270 270 270 269 272 265 246 220 216
247 239 243 257 251 244 252 252 242 235 244 257 275 290 289 287 285 288 291 294 290 285 293 301 311 317 316 305 291 280 276 277 281 278 271 268 270 267 265 266 271 272 267 199
250 239 237 238 241 248 246 263 283 298 293 284 290 294 292 289 286 289 287 286 281 292 308 309 308 308 306 305 297 284 276 271 277 282 276 272 271 270 268 268 269 273 273 270
244 242 246 251 253 257 265 282 293 292 296 297 299 297 285 274 273 279 279 285 291 294 288 286 288 295 299 297 290 289 291 282 262 273 280 284 282 281 279 276 275 275 275 284
245 252 262 266 260 256 261 261 263 273 283 295 291 281 271 267 270 278 287 294 292 282 284 287 290 288 287 298 296 293 287 284 284 287 286 284 285 281 280 280 279 280 286 246
225 236 248 254 259 259 262 267 269 275 272 268 270 272 272 270 271 273 281 282 281 275 287 293 279 270 279 301 299 276 278 283 285 284 283 280 274 280 286 288 287 286 289 296
224 229 236 242 248 255 261 262 258 257 259 266 270 271 271 272 272 274 274 271 286 315 314 303 277 279 287 296 290 281 281 280 284 287 287 286 288 292 292 290 290 290 290 292
224 221 226 236 252 261 260 259 254 253 258 259 260 263 265 268 269 267 268 270 296 315 293 259 261 279 289 301 276 283 281 279 281 284 282 284 284 284 286 291 295 297 300 300
238 232 235 246 254 263 265 257 252 256 258 256 259 261 260 257 251 250 254 273 274 275 268 260 267 318 309 289 279 285 281 280 278 276 278 283 285 288 290 293 294 295 299 301
256 248 249 252 257 267 270 262 254 253 254 255 257 258 263 276 280 276 271 272 275 265 267 276 325 296 282 270 275 281 286 285 283 284 285 288 288 289 290 293 295 295 298 298
263 250 253 260 262 257 256 259 258 255 252 249 250 252 256 259 259 262 275 220 248 261 273 286 218 245 260 266 275 280 285 285 281 280 282 281 279 283 288 292 295 294 287 287
272 264 262 261 254 255 254 247 243 244 248 244 248 249 250 254 268 281 284 271 240 254 268 219 207 233 253 269 282 289 289 296 293 288 281 285 289 296 299 294 289 285 287 293
290 286 296 284 287 275 260 255 255 258 259 258 257 269 285 282 276 271 257 252 254 264 269 254 244 246 269 288 299 301 304 298 278 277 292 293 290 294 296 299 299 295 299 301
269 280 279 280 258 244 253 256 260 262 260 257 274 286 296 309 302 287 276 270 273 281 297 298 286 284 290 301 314 317 316 316 311 306 303 291 289 294 298 294 290 290 291 288